FW3594 Weather Reports


time (UTC)temp
F
wind
direction
speed
knots
gust
knots
rain 1hr
in
rain 24hr
in
rain mn
in
humidity
%
barometer
mb
20260503200122 74 192 4.3 10.4 0.00 0.00 0.00 45 1014.0
20260503195122 77 205 4.3 11.3 0.00 0.00 0.00 39 1014.2
20260503194122 74 172 4.3 11.3 0.00 0.00 0.00 46 1014.4
20260503193122 74 177 4.3 11.3 0.00 0.00 0.00 46 1014.4
20260503192144 72 175 4.3 8.7 0.00 0.00 0.00 49 1014.4
20260503191144 74 202 3.5 7.8 0.00 0.00 0.00 46 1014.5
20260503190144 75 221 3.5 10.4 0.00 0.00 0.00 43 1014.7
20260503185124 74 228 5.2 11.3 0.00 0.00 0.00 40 1014.8
20260503184123 74 231 4.3 11.3 0.00 0.00 0.00 44 1014.9
20260503183123 74 232 4.3 9.6 0.00 0.00 0.00 47 1014.9
20260503182123 73 226 4.3 10.4 0.00 0.00 0.00 49 1014.9
20260503181123 71 173 3.5 8.7 0.00 0.00 0.00 55 1014.9
20260503180124 69 177 3.5 7.8 0.00 0.00 0.00 60 1015.0
20260503175122 68 194 3.5 7.0 0.00 0.00 0.00 61 1015.0
20260503174122 68 207 3.5 7.0 0.00 0.00 0.00 60 1015.0
20260503173143 67 208 2.6 7.0 0.00 0.00 0.00 63 1015.0
20260503172122 66 216 3.5 7.0 0.00 0.00 0.00 63 1015.0
20260503171122 68 182 2.6 7.0 0.00 0.00 0.00 59 1015.0
20260503170122 67 153 3.5 7.0 0.00 0.00 0.00 59 1015.2
20260503160124 66 174 2.6 5.2 0.00 0.00 0.00 62 1015.5
20260503150124 63 197 0.0 2.6 0.00 0.00 0.00 66 1015.5
20260503140124 54 360 0.0 0.0 0.00 0.00 0.00 84 1015.7
20260503131124 50 180 0.0 0.0 0.00 0.00 0.00 89 1015.4
20260503130124 50 19 0.9 2.6 0.00 0.00 0.00 89 1015.2
20260503120123 51 347 1.7 3.5 0.00 0.00 0.00 87 1015.2
20260503110124 52 35 0.0 2.6 0.00 0.00 0.00 86 1015.3
20260503100123 53 2 1.7 3.5 0.00 0.00 0.00 82 1015.4
20260503090124 55 352 1.7 3.5 0.00 0.00 0.00 81 1015.2
20260503081123 55 343 0.9 4.3 0.00 0.00 0.00 82 1015.0
20260503080124 55 315 0.0 0.0 0.00 0.00 0.00 82 1015.0
20260503072124 57 339 0.9 4.3 0.00 0.00 0.00 80 1015.0
20260503070122 58 23 0.0 0.0 0.00 0.00 0.00 79 1014.9
20260503060123 59 19 0.9 3.5 0.00 0.00 0.00 75 1014.5
20260503054123 59 351 1.7 2.6 0.00 0.00 0.00 74 1014.5
20260503053122 60 343 0.9 2.6 0.00 0.00 0.00 73 1014.5
20260503052122 60 360 0.0 0.0 0.00 0.00 0.00 72 1014.5
20260503051122 60 278 0.9 3.5 0.00 0.00 0.00 70 1014.5
20260503050124 61 360 0.0 0.0 0.00 0.00 0.00 69 1014.4
20260503045122 62 360 0.0 0.0 0.00 0.00 0.00 67 1014.3
20260503044143 62 45 0.0 0.0 0.00 0.00 0.00 68 1014.2
20260503043122 63 338 0.0 0.0 0.00 0.00 0.00 62 1014.2
20260503042123 64 23 0.0 0.0 0.00 0.00 0.00 60 1014.0
20260503041123 65 57 0.0 2.6 0.00 0.00 0.00 57 1014.0
20260503040122 66 53 0.0 3.5 0.00 0.00 0.00 55 1013.9
20260503035123 67 18 0.9 3.5 0.00 0.00 0.00 53 1013.8
20260503034122 68 322 1.7 4.3 0.00 0.00 0.00 51 1013.7
20260503033122 68 283 2.6 9.6 0.00 0.00 0.00 49 1013.7
20260503032122 68 289 3.5 9.6 0.00 0.00 0.00 48 1013.5
20260503031122 69 285 4.3 14.8 0.00 0.00 0.00 47 1013.7
20260503030123 69 274 3.5 8.7 0.00 0.00 0.00 47 1013.5
20260503025123 70 284 3.5 10.4 0.00 0.00 0.00 45 1013.5
20260503024122 71 325 3.5 8.7 0.00 0.00 0.00 43 1013.5
20260503023122 72 273 3.5 14.8 0.00 0.00 0.00 41 1013.5
20260503022122 73 264 3.5 11.3 0.00 0.00 0.00 40 1013.5
20260503021123 74 258 4.3 13.9 0.00 0.00 0.00 39 1013.5
20260503020122 74 266 4.3 15.6 0.00 0.00 0.00 39 1013.7
20260503015122 74 273 3.5 11.3 0.00 0.00 0.00 39 1013.8
20260503014122 75 282 4.3 15.6 0.00 0.00 0.00 38 1013.9
20260503013122 75 294 4.3 12.2 0.00 0.00 0.00 37 1013.9
20260503012123 75 216 4.3 13.9 0.00 0.00 0.00 37 1014.0
20260503011123 76 268 4.3 13.0 0.00 0.00 0.00 37 1014.0
20260503010122 75 249 4.3 15.6 0.00 0.00 0.00 38 1014.0
20260503005143 75 227 5.2 17.4 0.00 0.00 0.00 39 1014.3
20260503004122 74 212 5.2 16.5 0.00 0.00 0.00 40 1014.3
20260503003123 75 246 5.2 13.9 0.00 0.00 0.00 40 1014.3
20260503002123 75 229 5.2 15.6 0.00 0.00 0.00 39 1014.4
20260503001123 75 236 4.3 13.9 0.00 0.00 0.00 40 1014.5
20260503000144 75 245 5.2 12.2 0.00 0.00 0.00 41 1014.7
20260502235143 75 254 5.2 13.9 0.00 0.00 0.00 41 1014.9
20260502234122 76 235 4.3 13.0 0.00 0.00 0.00 41 1014.9
20260502233122 75 227 5.2 13.9 0.00 0.00 0.00 41 1014.9
20260502232122 75 306 5.2 13.9 0.00 0.00 0.00 41 1015.0
20260502231143 76 238 5.2 16.5 0.00 0.00 0.00 40 1015.0
20260502230123 75 254 4.3 15.6 0.00 0.00 0.00 40 1015.3
20260502225123 77 278 4.3 13.0 0.00 0.00 0.00 41 1015.5
20260502224122 77 268 3.5 8.7 0.00 0.00 0.00 42 1015.7
20260502223124 75 290 4.3 15.6 0.00 0.00 0.00 44 1015.7
20260502222143 74 241 4.3 12.2 0.00 0.00 0.00 45 1015.9
20260502221122 75 286 3.5 8.7 0.00 0.00 0.00 43 1015.9
20260502220123 75 279 3.5 11.3 0.00 0.00 0.00 44 1016.0
20260502215122 76 302 3.5 10.4 0.00 0.00 0.00 43 1016.3
20260502214122 75 328 3.5 9.6 0.00 0.00 0.00 45 1016.5
20260502213123 76 335 2.6 10.4 0.00 0.00 0.00 45 1016.5
20260502212122 75 314 2.6 7.0 0.00 0.00 0.00 47 1016.5
20260502211122 73 311 2.6 8.7 0.00 0.00 0.00 48 1016.8
20260502210122 72 282 2.6 7.8 0.00 0.00 0.00 50 1016.9
20260502205123 69 209 6.1 13.0 0.00 0.00 0.00 55 1017.0
20260502204122 69 213 5.2 12.2 0.00 0.00 0.00 55 1017.2
20260502203122 69 212 4.3 12.2 0.00 0.00 0.00 54 1017.2
20260502202123 69 217 4.3 11.3 0.00 0.00 0.00 55 1017.3
20260502201122 68 222 5.2 12.2 0.00 0.00 0.00 57 1017.4